Voltar ao catálogo

ATLAS 5 CENTAUR DEB

LostHEO
NORAD 44664·DEBRIS·🇺🇸 United States

Lançado Oct 17, 2018 de Cape Canaveral Space Force Station

Loading…

Próximas Passagens (próximas 24 horas)

TLE

ObsoletoSource: Space-Track

Época: Jul 8, 2024, 04:09 UTC

1 44664U 18079AA  24190.17350872 -.00000110  00000-0  00000+0 0  9990
2 44664  10.2312 125.1662 5129895 148.4729 256.1913  1.69334433 31559

Acompanhe ATLAS 5 CENTAUR DEB em tempo real com AllMySat

Download on the App Store